Time,TemperatureF,DewpointF,PressureIn,WindDirection,WindDirectionDegrees,WindSpeedMPH,WindSpeedGustMPH,Humidity,HourlyPrecipIn,Conditions,Clouds,dailyrainin,SoftwareType,DateUTC
2013-07-03 00:04:00,68.4,41.8,28.53,North,6,0.0,0.0,38,0.00,,---,0.00,VWS V14.01,2013-07-03 05:04:00,
2013-07-03 00:07:00,68.4,41.8,28.53,North,6,0.0,0.0,38,0.00,,---,0.00,VWS V14.01,2013-07-03 05:07:00,
2013-07-03 00:12:00,68.4,41.8,28.53,North,6,0.0,0.0,38,0.00,,---,0.00,VWS V14.01,2013-07-03 05:12:00,
2013-07-03 00:17:00,68.4,41.8,28.53,North,6,0.0,0.0,38,0.00,,---,0.00,VWS V14.01,2013-07-03 05:17:00,
2013-07-03 00:20:00,68.4,42.5,28.53,North,6,0.0,0.0,39,0.00,,---,0.00,VWS V14.01,2013-07-03 05:20:00,
2013-07-03 00:26:00,68.4,42.5,28.53,North,6,0.0,0.0,39,0.00,,---,0.00,VWS V14.01,2013-07-03 05:26:00,
2013-07-03 00:31:00,68.4,42.5,28.53,North,6,0.0,0.0,39,0.00,,---,0.00,VWS V14.01,2013-07-03 05:31:00,
2013-07-03 00:36:00,68.4,42.5,28.53,North,6,0.0,0.0,39,0.00,,---,0.00,VWS V14.01,2013-07-03 05:36:00,
2013-07-03 00:42:00,68.2,42.3,28.53,North,6,0.0,0.0,39,0.00,,---,0.00,VWS V14.01,2013-07-03 05:42:00,
2013-07-03 00:47:00,68.2,42.3,28.53,North,6,0.0,0.0,39,0.00,,---,0.00,VWS V14.01,2013-07-03 05:47:00,
2013-07-03 00:52:00,68.0,42.1,28.53,North,6,0.0,0.0,39,0.00,,---,0.00,VWS V14.01,2013-07-03 05:52:00,
2013-07-03 00:55:00,68.0,42.8,28.53,North,6,0.0,0.0,40,0.00,,---,0.00,VWS V14.01,2013-07-03 05:55:00,
2013-07-03 00:58:00,67.8,42.6,28.53,North,6,0.0,0.0,40,0.00,,---,0.00,VWS V14.01,2013-07-03 05:58:00,
2013-07-03 01:03:00,67.6,42.5,28.53,North,6,0.0,0.0,40,0.00,,---,0.00,VWS V14.01,2013-07-03 06:03:00,
2013-07-03 01:08:00,67.3,42.2,28.53,North,6,0.0,0.0,40,0.00,,---,0.00,VWS V14.01,2013-07-03 06:08:00,
2013-07-03 01:13:00,67.1,42.6,28.53,North,6,0.0,0.0,41,0.00,,---,0.00,VWS V14.01,2013-07-03 06:13:00,
2013-07-03 01:16:00,66.9,42.5,28.53,North,6,0.0,0.0,41,0.00,,---,0.00,VWS V14.01,2013-07-03 06:16:00,
2013-07-03 01:20:00,66.6,42.8,28.53,North,6,0.0,0.0,42,0.00,,---,0.00,VWS V14.01,2013-07-03 06:20:00,
2013-07-03 01:22:00,66.6,42.8,28.53,North,6,0.0,0.0,42,0.00,,---,0.00,VWS V14.01,2013-07-03 06:22:00,
2013-07-03 01:24:00,66.4,42.6,28.53,North,6,0.0,0.0,42,0.00,,---,0.00,VWS V14.01,2013-07-03 06:24:00,
2013-07-03 01:27:00,66.2,43.1,28.53,North,6,0.0,0.0,43,0.00,,---,0.00,VWS V14.01,2013-07-03 06:27:00,
2013-07-03 01:32:00,65.8,43.3,28.53,North,6,0.0,0.0,44,0.00,,---,0.00,VWS V14.01,2013-07-03 06:32:00,
2013-07-03 01:37:00,65.7,43.2,28.53,North,6,0.0,0.0,44,0.00,,---,0.00,VWS V14.01,2013-07-03 06:37:00,
2013-07-03 01:42:00,65.5,43.6,28.53,North,6,0.0,0.0,45,0.00,,---,0.00,VWS V14.01,2013-07-03 06:42:00,
2013-07-03 01:44:00,65.5,43.6,28.53,North,6,0.0,0.0,45,0.00,,---,0.00,VWS V14.01,2013-07-03 06:44:00,
2013-07-03 01:49:00,65.3,44.0,28.53,North,6,0.0,0.0,46,0.00,,---,0.00,VWS V14.01,2013-07-03 06:49:00,
2013-07-03 01:54:00,65.3,44.0,28.53,North,6,0.0,0.0,46,0.00,,---,0.00,VWS V14.01,2013-07-03 06:54:00,
2013-07-03 01:57:00,65.1,43.8,28.53,North,6,0.0,0.0,46,0.00,,---,0.00,VWS V14.01,2013-07-03 06:57:00,
2013-07-03 02:03:00,64.9,43.7,28.53,North,6,0.0,0.0,46,0.00,,---,0.00,VWS V14.01,2013-07-03 07:03:00,
2013-07-03 02:08:00,64.8,43.5,28.53,North,6,0.0,0.0,46,0.00,,---,0.00,VWS V14.01,2013-07-03 07:08:00,
2013-07-03 02:14:00,64.8,44.1,28.53,North,6,0.0,0.0,47,0.00,,---,0.00,VWS V14.01,2013-07-03 07:14:00,
2013-07-03 02:17:00,64.6,43.9,28.53,North,6,0.0,0.0,47,0.00,,---,0.00,VWS V14.01,2013-07-03 07:17:00,
2013-07-03 02:24:00,64.4,43.8,28.53,North,6,0.0,0.0,47,0.00,,---,0.00,VWS V14.01,2013-07-03 07:24:00,
2013-07-03 02:29:00,64.2,44.1,28.53,North,6,0.0,0.0,48,0.00,,---,0.00,VWS V14.01,2013-07-03 07:29:00,
2013-07-03 02:35:00,64.2,44.1,28.53,North,6,0.0,0.0,48,0.00,,---,0.00,VWS V14.01,2013-07-03 07:35:00,
2013-07-03 02:39:00,64.2,44.1,28.53,North,6,0.0,0.0,48,0.00,,---,0.00,VWS V14.01,2013-07-03 07:39:00,
2013-07-03 02:44:00,64.0,44.5,28.53,North,6,0.0,0.0,49,0.00,,---,0.00,VWS V14.01,2013-07-03 07:44:00,
2013-07-03 02:50:00,64.0,44.5,28.53,North,6,0.0,0.0,49,0.00,,---,0.00,VWS V14.01,2013-07-03 07:50:00,
2013-07-03 02:53:00,63.9,44.3,28.53,North,6,0.0,0.0,49,0.00,,---,0.00,VWS V14.01,2013-07-03 07:53:00,
2013-07-03 02:59:00,63.7,44.2,28.53,North,6,0.0,0.0,49,0.00,,---,0.00,VWS V14.01,2013-07-03 07:59:00,
2013-07-03 03:01:00,63.7,44.7,28.53,North,6,0.0,0.0,50,0.00,,---,0.00,VWS V14.01,2013-07-03 08:01:00,
2013-07-03 03:06:00,63.5,44.5,28.53,North,6,0.0,0.0,50,0.00,,---,0.00,VWS V14.01,2013-07-03 08:06:00,
2013-07-03 03:10:00,63.3,44.4,28.50,North,6,0.0,0.0,50,0.00,,---,0.00,VWS V14.01,2013-07-03 08:10:00,
2013-07-03 03:15:00,63.1,44.7,28.50,North,6,0.0,0.0,51,0.00,,---,0.00,VWS V14.01,2013-07-03 08:15:00,
2013-07-03 03:18:00,63.1,44.7,28.50,North,6,0.0,0.0,51,0.00,,---,0.00,VWS V14.01,2013-07-03 08:18:00,
2013-07-03 03:19:00,63.1,44.7,28.50,North,6,0.0,0.0,51,0.00,,---,0.00,VWS V14.01,2013-07-03 08:19:00,
2013-07-03 03:24:00,63.0,45.1,28.50,North,6,0.0,0.0,52,0.00,,---,0.00,VWS V14.01,2013-07-03 08:24:00,
2013-07-03 03:29:00,62.8,44.9,28.50,North,6,0.0,0.0,52,0.00,,---,0.00,VWS V14.01,2013-07-03 08:29:00,
2013-07-03 03:35:00,62.6,44.8,28.50,North,6,0.0,0.0,52,0.00,,---,0.00,VWS V14.01,2013-07-03 08:35:00,
2013-07-03 03:39:00,62.6,45.2,28.50,North,6,0.0,0.0,53,0.00,,---,0.00,VWS V14.01,2013-07-03 08:39:00,
2013-07-03 03:44:00,62.6,45.2,28.50,North,6,0.0,0.0,53,0.00,,---,0.00,VWS V14.01,2013-07-03 08:44:00,
2013-07-03 03:45:00,62.6,45.2,28.50,North,6,0.0,0.0,53,0.00,,---,0.00,VWS V14.01,2013-07-03 08:45:00,
2013-07-03 03:50:00,62.8,45.9,28.50,North,6,0.0,0.0,54,0.00,,---,0.00,VWS V14.01,2013-07-03 08:50:00,
2013-07-03 03:55:00,62.8,45.9,28.50,North,6,0.0,0.0,54,0.00,,---,0.00,VWS V14.01,2013-07-03 08:55:00,
2013-07-03 03:56:00,62.8,45.9,28.50,North,6,0.0,0.0,54,0.00,,---,0.00,VWS V14.01,2013-07-03 08:56:00,
2013-07-03 04:01:00,63.0,46.1,28.50,North,6,0.0,0.0,54,0.00,,---,0.00,VWS V14.01,2013-07-03 09:01:00,
2013-07-03 04:06:00,63.0,46.1,28.50,North,6,0.0,0.0,54,0.00,,---,0.00,VWS V14.01,2013-07-03 09:06:00,
2013-07-03 04:11:00,63.0,46.1,28.50,North,6,0.0,0.0,54,0.00,,---,0.00,VWS V14.01,2013-07-03 09:11:00,
2013-07-03 04:16:00,63.0,46.1,28.50,North,6,0.0,0.0,54,0.00,,---,0.00,VWS V14.01,2013-07-03 09:16:00,
2013-07-03 04:21:00,62.8,45.9,28.50,North,6,0.0,0.0,54,0.00,,---,0.00,VWS V14.01,2013-07-03 09:21:00,
2013-07-03 04:27:00,62.8,46.4,28.50,North,6,0.0,0.0,55,0.00,,---,0.00,VWS V14.01,2013-07-03 09:27:00,
2013-07-03 04:32:00,62.6,46.2,28.50,North,6,0.0,0.0,55,0.00,,---,0.00,VWS V14.01,2013-07-03 09:32:00,
2013-07-03 04:37:00,62.4,46.5,28.50,North,6,0.0,0.0,56,0.00,,---,0.00,VWS V14.01,2013-07-03 09:37:00,
2013-07-03 04:41:00,62.2,46.4,28.50,North,6,0.0,0.0,56,0.00,,---,0.00,VWS V14.01,2013-07-03 09:41:00,
2013-07-03 04:46:00,62.2,46.8,28.50,North,6,0.0,0.0,57,0.00,,---,0.00,VWS V14.01,2013-07-03 09:46:00,
2013-07-03 04:49:00,62.1,46.7,28.50,North,6,0.0,0.0,57,0.00,,---,0.00,VWS V14.01,2013-07-03 09:49:00,
2013-07-03 04:54:00,62.1,46.7,28.50,North,6,0.0,0.0,57,0.00,,---,0.00,VWS V14.01,2013-07-03 09:54:00,
2013-07-03 04:59:00,62.1,47.1,28.50,North,6,0.0,0.0,58,0.00,,---,0.00,VWS V14.01,2013-07-03 09:59:00,
2013-07-03 05:04:00,61.9,47.0,28.50,North,6,0.0,0.0,58,0.00,,---,0.00,VWS V14.01,2013-07-03 10:04:00,
2013-07-03 05:05:00,61.9,47.0,28.50,North,6,0.0,0.0,58,0.00,,---,0.00,VWS V14.01,2013-07-03 10:05:00,
2013-07-03 05:10:00,61.9,47.0,28.50,North,6,0.0,0.0,58,0.00,,---,0.00,VWS V14.01,2013-07-03 10:10:00,
2013-07-03 05:16:00,61.7,46.8,28.50,North,6,0.0,0.0,58,0.00,,---,0.00,VWS V14.01,2013-07-03 10:16:00,
2013-07-03 05:21:00,61.7,47.2,28.50,North,6,0.0,0.0,59,0.00,,---,0.00,VWS V14.01,2013-07-03 10:21:00,
2013-07-03 05:27:00,61.7,47.7,28.50,North,6,0.0,0.0,60,0.00,,---,0.00,VWS V14.01,2013-07-03 10:27:00,
2013-07-03 05:32:00,61.7,47.7,28.50,North,6,0.0,0.0,60,0.00,,---,0.00,VWS V14.01,2013-07-03 10:32:00,
2013-07-03 05:37:00,61.5,47.5,28.50,North,6,0.0,0.0,60,0.00,,---,0.00,VWS V14.01,2013-07-03 10:37:00,
2013-07-03 05:43:00,61.5,47.5,28.50,North,6,0.0,0.0,60,0.00,,---,0.00,VWS V14.01,2013-07-03 10:43:00,
2013-07-03 05:48:00,61.5,48.0,28.50,North,6,0.0,0.0,61,0.00,,---,0.00,VWS V14.01,2013-07-03 10:48:00,
2013-07-03 05:49:00,61.5,48.0,28.50,North,6,0.0,0.0,61,0.00,,---,0.00,VWS V14.01,2013-07-03 10:49:00,
2013-07-03 05:54:00,61.3,47.8,28.50,North,6,0.0,0.0,61,0.00,,---,0.00,VWS V14.01,2013-07-03 10:54:00,
2013-07-03 05:56:00,61.3,47.8,28.50,North,6,0.0,0.0,61,0.00,,---,0.00,VWS V14.01,2013-07-03 10:56:00,
2013-07-03 05:57:00,61.3,47.8,28.50,North,6,0.0,0.0,61,0.00,,---,0.00,VWS V14.01,2013-07-03 10:57:00,
2013-07-03 06:02:00,61.5,48.4,28.50,North,6,0.0,0.0,62,0.00,,---,0.00,VWS V14.01,2013-07-03 11:02:00,
2013-07-03 06:07:00,61.5,48.4,28.53,North,5,0.0,0.0,62,0.00,,---,0.00,VWS V14.01,2013-07-03 11:07:00,
2013-07-03 06:09:00,61.5,48.8,28.53,North,5,0.0,0.0,63,0.00,,---,0.00,VWS V14.01,2013-07-03 11:09:00,
2013-07-03 06:11:00,61.7,49.0,28.53,North,5,0.0,0.0,63,0.00,,---,0.00,VWS V14.01,2013-07-03 11:11:00,
2013-07-03 06:16:00,61.9,48.7,28.53,WNW,283,0.0,4.9,62,0.00,,---,0.00,VWS V14.01,2013-07-03 11:16:00,
2013-07-03 06:19:00,61.9,48.7,28.53,WNW,283,0.0,4.9,62,0.00,,---,0.00,VWS V14.01,2013-07-03 11:19:00,
2013-07-03 06:24:00,62.1,48.5,28.53,WNW,283,0.0,4.9,61,0.00,,---,0.00,VWS V14.01,2013-07-03 11:24:00,
2013-07-03 06:27:00,62.1,48.0,28.53,WNW,283,0.0,4.9,60,0.00,,---,0.00,VWS V14.01,2013-07-03 11:27:00,
2013-07-03 06:33:00,62.6,48.5,28.53,WNW,282,0.0,4.9,60,0.00,,---,0.00,VWS V14.01,2013-07-03 11:33:00,
2013-07-03 06:38:00,63.0,48.4,28.53,West,262,0.0,4.9,59,0.00,,---,0.00,VWS V14.01,2013-07-03 11:38:00,
2013-07-03 06:44:00,63.3,48.3,28.53,West,262,0.0,4.9,58,0.00,,---,0.00,VWS V14.01,2013-07-03 11:44:00,
2013-07-03 06:45:00,63.7,48.6,28.53,West,262,0.0,4.9,58,0.00,,---,0.00,VWS V14.01,2013-07-03 11:45:00,
2013-07-03 06:52:00,64.2,49.2,28.53,West,262,0.0,4.9,58,0.00,,---,0.00,VWS V14.01,2013-07-03 11:52:00,
2013-07-03 06:57:00,64.4,48.8,28.53,West,262,0.0,4.9,57,0.00,,---,0.00,VWS V14.01,2013-07-03 11:57:00,
2013-07-03 06:59:00,64.6,48.5,28.53,West,262,0.0,4.9,56,0.00,,---,0.00,VWS V14.01,2013-07-03 11:59:00,
2013-07-03 07:02:00,64.8,48.7,28.53,West,262,0.0,0.0,56,0.00,,---,0.00,VWS V14.01,2013-07-03 12:02:00,
2013-07-03 07:07:00,64.8,48.7,28.53,West,262,0.0,0.0,56,0.00,,---,0.00,VWS V14.01,2013-07-03 12:07:00,
2013-07-03 07:13:00,64.9,48.9,28.53,West,262,0.0,0.0,56,0.00,,---,0.00,VWS V14.01,2013-07-03 12:13:00,
2013-07-03 07:16:00,65.1,49.0,28.53,West,262,0.0,0.0,56,0.00,,---,0.00,VWS V14.01,2013-07-03 12:16:00,
2013-07-03 07:22:00,65.1,49.5,28.53,West,262,0.0,0.0,57,0.00,,---,0.00,VWS V14.01,2013-07-03 12:22:00,
2013-07-03 07:27:00,65.3,49.7,28.53,West,262,3.6,3.6,57,0.00,,---,0.00,VWS V14.01,2013-07-03 12:27:00,
2013-07-03 07:33:00,65.5,49.9,28.53,West,262,0.0,3.6,57,0.00,,---,0.00,VWS V14.01,2013-07-03 12:33:00,
2013-07-03 07:38:00,65.7,50.5,28.53,West,259,0.0,3.6,58,0.00,,---,0.00,VWS V14.01,2013-07-03 12:38:00,
2013-07-03 07:43:00,66.4,51.2,28.53,West,259,0.0,3.6,58,0.00,,---,0.00,VWS V14.01,2013-07-03 12:43:00,
2013-07-03 07:46:00,66.9,51.7,28.53,West,259,0.0,3.6,58,0.00,,---,0.00,VWS V14.01,2013-07-03 12:46:00,
2013-07-03 07:51:00,67.6,51.9,28.53,West,259,0.0,3.6,57,0.00,,---,0.00,VWS V14.01,2013-07-03 12:51:00,
2013-07-03 07:56:00,68.2,50.9,28.53,WSW,240,3.1,3.6,54,0.00,,---,0.00,VWS V14.01,2013-07-03 12:56:00,
2013-07-03 08:01:00,68.2,50.4,28.53,SW,230,0.0,2.7,53,0.00,,---,0.00,VWS V14.01,2013-07-03 13:01:00,
2013-07-03 08:06:00,68.2,50.4,28.53,SW,230,0.0,2.7,53,0.00,,---,0.00,VWS V14.01,2013-07-03 13:06:00,
2013-07-03 08:12:00,68.4,50.6,28.53,SW,230,0.0,2.7,53,0.00,,---,0.00,VWS V14.01,2013-07-03 13:12:00,
2013-07-03 08:18:00,68.7,50.9,28.53,SW,230,0.0,2.7,53,0.00,,---,0.00,VWS V14.01,2013-07-03 13:18:00,
2013-07-03 08:23:00,69.6,51.2,28.53,SW,230,0.0,2.7,52,0.00,,---,0.00,VWS V14.01,2013-07-03 13:23:00,
2013-07-03 08:26:00,70.0,51.6,28.53,SW,231,0.0,2.7,52,0.00,,---,0.00,VWS V14.01,2013-07-03 13:26:00,
2013-07-03 08:31:00,70.9,50.2,28.53,West,260,3.1,4.0,48,0.00,,---,0.00,VWS V14.01,2013-07-03 13:31:00,
2013-07-03 08:36:00,71.2,50.0,28.53,WSW,251,5.4,6.3,47,0.00,,---,0.00,VWS V14.01,2013-07-03 13:36:00,
2013-07-03 08:37:00,71.2,49.4,28.56,WSW,250,3.6,6.3,46,0.00,,---,0.00,VWS V14.01,2013-07-03 13:37:00,
2013-07-03 08:43:00,71.8,48.1,28.56,West,274,3.1,7.6,43,0.00,,---,0.00,VWS V14.01,2013-07-03 13:43:00,
2013-07-03 08:48:00,72.1,49.7,28.56,West,268,3.6,8.7,45,0.00,,---,0.00,VWS V14.01,2013-07-03 13:48:00,
2013-07-03 08:55:00,72.5,50.0,28.56,WSW,254,0.0,8.7,45,0.00,,---,0.00,VWS V14.01,2013-07-03 13:55:00,
2013-07-03 09:00:00,73.0,51.1,28.56,SW,232,5.4,8.7,46,0.00,,---,0.00,VWS V14.01,2013-07-03 14:00:00,
2013-07-03 09:05:00,73.4,49.6,28.56,West,270,4.0,8.7,43,0.00,,---,0.00,VWS V14.01,2013-07-03 14:05:00,
2013-07-03 09:06:00,73.4,49.6,28.56,West,270,4.9,8.7,43,0.00,,---,0.00,VWS V14.01,2013-07-03 14:06:00,
2013-07-03 09:11:00,73.8,49.9,28.56,West,259,5.4,8.7,43,0.00,,---,0.00,VWS V14.01,2013-07-03 14:11:00,
2013-07-03 09:16:00,74.1,50.2,28.56,SW,236,4.9,8.7,43,0.00,,---,0.00,VWS V14.01,2013-07-03 14:16:00,
2013-07-03 09:19:00,74.3,49.8,28.56,West,268,6.3,8.7,42,0.00,,---,0.00,VWS V14.01,2013-07-03 14:19:00,
2013-07-03 09:24:00,74.3,49.1,28.56,WSW,247,4.0,10.5,41,0.00,,---,0.00,VWS V14.01,2013-07-03 14:24:00,
2013-07-03 09:30:00,74.7,49.4,28.56,WSW,253,3.6,10.5,41,0.00,,---,0.00,VWS V14.01,2013-07-03 14:30:00,
2013-07-03 09:35:00,75.2,49.9,28.56,WSW,253,4.0,10.5,41,0.00,,---,0.00,VWS V14.01,2013-07-03 14:35:00,
2013-07-03 09:38:00,75.4,50.1,28.56,SW,226,3.6,10.5,41,0.00,,---,0.00,VWS V14.01,2013-07-03 14:38:00,
2013-07-03 09:42:00,75.6,49.6,28.56,WSW,237,4.9,10.5,40,0.00,,---,0.00,VWS V14.01,2013-07-03 14:42:00,
2013-07-03 09:47:00,75.7,49.0,28.56,SW,229,4.9,10.5,39,0.00,,---,0.00,VWS V14.01,2013-07-03 14:47:00,
2013-07-03 09:52:00,75.7,46.2,28.53,WSW,251,5.8,10.5,35,0.00,,---,0.00,VWS V14.01,2013-07-03 14:52:00,
2013-07-03 09:57:00,76.3,47.4,28.53,WSW,242,5.8,10.5,36,0.00,,---,0.00,VWS V14.01,2013-07-03 14:57:00,
2013-07-03 10:00:00,76.5,46.8,28.53,WSW,243,3.6,10.5,35,0.00,,---,0.00,VWS V14.01,2013-07-03 15:00:00,
2013-07-03 10:03:00,76.6,47.0,28.53,SW,228,3.1,7.2,35,0.00,,---,0.00,VWS V14.01,2013-07-03 15:03:00,
2013-07-03 10:05:00,76.8,47.1,28.53,WSW,253,5.4,8.7,35,0.00,,---,0.00,VWS V14.01,2013-07-03 15:05:00,
2013-07-03 10:10:00,76.8,47.1,28.53,WSW,248,5.8,8.7,35,0.00,,---,0.00,VWS V14.01,2013-07-03 15:10:00,
2013-07-03 10:15:00,77.0,48.0,28.53,SSW,195,3.1,8.7,36,0.00,,---,0.00,VWS V14.01,2013-07-03 15:15:00,
2013-07-03 10:17:00,77.4,46.8,28.53,SW,225,2.7,8.7,34,0.00,,---,0.00,VWS V14.01,2013-07-03 15:17:00,
2013-07-03 10:22:00,78.3,47.6,28.53,West,274,2.7,8.7,34,0.00,,---,0.00,VWS V14.01,2013-07-03 15:22:00,
2013-07-03 10:27:00,78.6,47.1,28.53,SSE,151,4.0,8.7,33,0.00,,---,0.00,VWS V14.01,2013-07-03 15:27:00,
2013-07-03 10:31:00,79.0,46.6,28.53,SSE,166,3.1,8.7,32,0.00,,---,0.00,VWS V14.01,2013-07-03 15:31:00,
2013-07-03 10:37:00,79.5,46.3,28.53,SSE,152,2.7,8.7,31,0.00,,---,0.00,VWS V14.01,2013-07-03 15:37:00,
2013-07-03 10:40:00,79.7,46.4,28.53,SW,231,3.1,8.7,31,0.00,,---,0.00,VWS V14.01,2013-07-03 15:40:00,
2013-07-03 10:45:00,80.2,46.9,28.53,SE,144,0.0,8.7,31,0.00,,---,0.00,VWS V14.01,2013-07-03 15:45:00,
2013-07-03 10:50:00,80.6,46.3,28.53,SE,146,3.6,8.7,30,0.00,,---,0.00,VWS V14.01,2013-07-03 15:50:00,
2013-07-03 10:52:00,80.6,47.2,28.53,SSW,206,3.1,8.7,31,0.00,,---,0.00,VWS V14.01,2013-07-03 15:52:00,
2013-07-03 10:55:00,80.6,46.3,28.53,SW,231,3.6,8.7,30,0.00,,---,0.00,VWS V14.01,2013-07-03 15:55:00,
2013-07-03 11:00:00,81.1,46.8,28.53,South,174,4.9,4.9,30,0.00,,---,0.00,VWS V14.01,2013-07-03 16:00:00,
2013-07-03 11:05:00,81.7,47.3,28.53,West,265,2.7,4.9,30,0.00,,---,0.00,VWS V14.01,2013-07-03 16:05:00,
2013-07-03 11:10:00,81.9,47.4,28.53,WSW,250,4.0,6.3,30,0.00,,---,0.00,VWS V14.01,2013-07-03 16:10:00,
2013-07-03 11:16:00,81.1,46.8,28.53,SSE,147,4.0,8.3,30,0.00,,---,0.00,VWS V14.01,2013-07-03 16:16:00,
2013-07-03 11:21:00,81.3,47.0,28.53,SSW,203,4.9,8.3,30,0.00,,---,0.00,VWS V14.01,2013-07-03 16:21:00,
2013-07-03 11:26:00,81.0,46.6,28.50,SW,228,4.9,8.3,30,0.00,,---,0.00,VWS V14.01,2013-07-03 16:26:00,
2013-07-03 11:31:00,81.0,46.6,28.50,SW,221,3.1,8.3,30,0.00,,---,0.00,VWS V14.01,2013-07-03 16:31:00,
2013-07-03 11:36:00,81.1,46.8,28.50,SW,225,3.6,8.3,30,0.00,,---,0.00,VWS V14.01,2013-07-03 16:36:00,
2013-07-03 11:41:00,81.5,47.1,28.50,WSW,248,4.9,8.3,30,0.00,,---,0.00,VWS V14.01,2013-07-03 16:41:00,
2013-07-03 11:47:00,81.9,47.4,28.50,SSW,197,6.3,8.3,30,0.00,,---,0.00,VWS V14.01,2013-07-03 16:47:00,
2013-07-03 11:52:00,82.0,47.6,28.50,SE,135,3.6,8.3,30,0.00,,---,0.00,VWS V14.01,2013-07-03 16:52:00,
2013-07-03 11:57:00,82.6,47.1,28.50,WNW,298,2.2,8.3,29,0.00,,---,0.00,VWS V14.01,2013-07-03 16:57:00,
2013-07-03 12:02:00,83.1,47.6,28.50,SSE,149,2.7,6.3,29,0.00,,---,0.00,VWS V14.01,2013-07-03 17:02:00,
2013-07-03 12:07:00,83.7,48.1,28.50,South,173,3.6,6.3,29,0.00,,---,0.00,VWS V14.01,2013-07-03 17:07:00,
2013-07-03 12:14:00,84.4,47.8,28.50,SE,144,3.1,6.3,28,0.00,,---,0.00,VWS V14.01,2013-07-03 17:14:00,
2013-07-03 12:20:00,84.7,48.1,28.50,East,88,3.1,6.3,28,0.00,,---,0.00,VWS V14.01,2013-07-03 17:20:00,
2013-07-03 12:25:00,85.1,48.4,28.50,ENE,75,2.7,6.3,28,0.00,,---,0.00,VWS V14.01,2013-07-03 17:25:00,
2013-07-03 12:31:00,84.7,47.1,28.50,SE,146,2.2,6.7,27,0.00,,---,0.00,VWS V14.01,2013-07-03 17:31:00,
2013-07-03 12:37:00,85.1,46.4,28.50,SSE,151,2.7,6.7,26,0.00,,---,0.00,VWS V14.01,2013-07-03 17:37:00,
2013-07-03 12:42:00,85.6,44.7,28.50,West,269,4.0,6.7,24,0.00,,---,0.00,VWS V14.01,2013-07-03 17:42:00,
2013-07-03 12:47:00,85.8,46.0,28.50,South,179,2.7,6.7,25,0.00,,---,0.00,VWS V14.01,2013-07-03 17:47:00,
2013-07-03 12:52:00,86.0,46.1,28.50,WNW,288,2.7,6.7,25,0.00,,---,0.00,VWS V14.01,2013-07-03 17:52:00,
2013-07-03 12:57:00,86.9,46.9,28.50,SE,136,3.1,6.7,25,0.00,,---,0.00,VWS V14.01,2013-07-03 17:57:00,
2013-07-03 13:02:00,87.4,46.2,28.50,SE,138,3.1,4.9,24,0.00,,---,0.00,VWS V14.01,2013-07-03 18:02:00,
2013-07-03 13:08:00,87.6,46.4,28.47,SE,130,4.0,4.9,24,0.00,,---,0.00,VWS V14.01,2013-07-03 18:08:00,
2013-07-03 13:14:00,87.8,45.4,28.47,SSE,153,5.4,5.4,23,0.00,,---,0.00,VWS V14.01,2013-07-03 18:14:00,
2013-07-03 13:19:00,87.6,45.3,28.47,WSW,245,3.6,5.4,23,0.00,,---,0.00,VWS V14.01,2013-07-03 18:19:00,
2013-07-03 13:24:00,87.8,45.4,28.47,West,262,0.0,5.4,23,0.00,,---,0.00,VWS V14.01,2013-07-03 18:24:00,
2013-07-03 13:29:00,88.0,45.6,28.47,SSE,154,3.6,5.8,23,0.00,,---,0.00,VWS V14.01,2013-07-03 18:29:00,
2013-07-03 13:34:00,88.2,44.6,28.47,ESE,121,2.2,5.8,22,0.00,,---,0.00,VWS V14.01,2013-07-03 18:34:00,
2013-07-03 13:39:00,88.3,44.7,28.47,SSE,166,2.7,5.8,22,0.00,,---,0.00,VWS V14.01,2013-07-03 18:39:00,
2013-07-03 13:44:00,88.5,43.6,28.47,SW,221,0.0,5.8,21,0.00,,---,0.00,VWS V14.01,2013-07-03 18:44:00,
2013-07-03 13:50:00,88.9,43.9,28.47,ESE,116,0.0,5.8,21,0.00,,---,0.00,VWS V14.01,2013-07-03 18:50:00,
2013-07-03 13:55:00,88.9,43.9,28.47,ESE,123,3.1,5.8,21,0.00,,---,0.00,VWS V14.01,2013-07-03 18:55:00,
2013-07-03 14:01:00,89.1,44.1,28.47,NNE,21,2.7,4.0,21,0.00,,---,0.00,VWS V14.01,2013-07-03 19:01:00,
2013-07-03 14:06:00,89.4,44.4,28.47,ESE,112,2.7,5.4,21,0.00,,---,0.00,VWS V14.01,2013-07-03 19:06:00,
2013-07-03 14:11:00,89.6,43.3,28.47,South,190,3.6,5.4,20,0.00,,---,0.00,VWS V14.01,2013-07-03 19:11:00,
2013-07-03 14:18:00,89.8,43.4,28.47,SW,221,2.7,5.8,20,0.00,,---,0.00,VWS V14.01,2013-07-03 19:18:00,
2013-07-03 14:23:00,90.1,43.7,28.47,SSE,168,3.1,5.8,20,0.00,,---,0.00,VWS V14.01,2013-07-03 19:23:00,
2013-07-03 14:29:00,90.0,43.5,28.47,South,183,0.0,5.8,20,0.00,,---,0.00,VWS V14.01,2013-07-03 19:29:00,
2013-07-03 14:34:00,89.8,43.4,28.47,NNE,27,3.1,5.8,20,0.00,,---,0.00,VWS V14.01,2013-07-03 19:34:00,
2013-07-03 14:39:00,89.4,43.1,28.44,SSE,151,0.0,5.8,20,0.00,,---,0.00,VWS V14.01,2013-07-03 19:39:00,
2013-07-03 14:45:00,89.8,43.4,28.44,SSE,151,2.7,5.8,20,0.00,,---,0.00,VWS V14.01,2013-07-03 19:45:00,
2013-07-03 14:50:00,89.6,41.9,28.44,North,350,3.6,5.8,19,0.00,,---,0.00,VWS V14.01,2013-07-03 19:50:00,
2013-07-03 14:55:00,89.4,43.1,28.44,North,357,0.0,5.8,20,0.00,,---,0.00,VWS V14.01,2013-07-03 19:55:00,
2013-07-03 15:00:00,89.6,41.9,28.44,NE,37,2.7,3.1,19,0.00,,---,0.00,VWS V14.01,2013-07-03 20:00:00,
2013-07-03 15:05:00,89.6,41.9,28.44,NE,44,2.7,4.0,19,0.00,,---,0.00,VWS V14.01,2013-07-03 20:05:00,
2013-07-03 15:10:00,89.6,41.9,28.44,SE,140,5.4,5.4,19,0.00,,---,0.00,VWS V14.01,2013-07-03 20:10:00,
2013-07-03 15:16:00,89.4,41.8,28.44,NE,51,3.6,6.3,19,0.00,,---,0.00,VWS V14.01,2013-07-03 20:16:00,
2013-07-03 15:21:00,89.4,41.8,28.44,WSW,245,3.1,6.3,19,0.00,,---,0.00,VWS V14.01,2013-07-03 20:21:00,
2013-07-03 15:26:00,89.1,42.8,28.44,South,190,4.0,6.3,20,0.00,,---,0.00,VWS V14.01,2013-07-03 20:26:00,
2013-07-03 15:32:00,88.7,41.2,28.44,East,98,3.1,6.3,19,0.00,,---,0.00,VWS V14.01,2013-07-03 20:32:00,
2013-07-03 15:37:00,88.0,41.9,28.44,SE,132,0.0,6.3,20,0.00,,---,0.00,VWS V14.01,2013-07-03 20:37:00,
2013-07-03 15:43:00,87.6,41.6,28.44,South,173,2.7,6.3,20,0.00,,---,0.00,VWS V14.01,2013-07-03 20:43:00,
2013-07-03 15:48:00,87.6,41.6,28.44,ENE,69,3.6,6.3,20,0.00,,---,0.00,VWS V14.01,2013-07-03 20:48:00,
2013-07-03 15:53:00,87.6,41.6,28.44,South,187,5.4,6.3,20,0.00,,---,0.00,VWS V14.01,2013-07-03 20:53:00,
2013-07-03 15:59:00,87.4,41.5,28.44,SSE,162,4.0,6.3,20,0.00,,---,0.00,VWS V14.01,2013-07-03 20:59:00,
2013-07-03 16:05:00,87.1,41.2,28.44,South,170,2.7,5.8,20,0.00,,---,0.00,VWS V14.01,2013-07-03 21:05:00,
2013-07-03 16:10:00,86.9,41.0,28.41,SSE,148,4.0,5.8,20,0.00,,---,0.00,VWS V14.01,2013-07-03 21:10:00,
2013-07-03 16:16:00,86.4,40.6,28.41,North,353,3.6,5.8,20,0.00,,---,0.00,VWS V14.01,2013-07-03 21:16:00,
2013-07-03 16:21:00,86.2,40.5,28.41,NW,319,0.0,5.8,20,0.00,,---,0.00,VWS V14.01,2013-07-03 21:21:00,
2013-07-03 16:26:00,86.2,40.5,28.41,South,177,2.7,5.8,20,0.00,,---,0.00,VWS V14.01,2013-07-03 21:26:00,
2013-07-03 16:31:00,86.2,40.5,28.41,SSE,163,4.0,6.3,20,0.00,,---,0.00,VWS V14.01,2013-07-03 21:31:00,
2013-07-03 16:36:00,86.2,39.1,28.41,North,2,0.0,6.3,19,0.00,,---,0.00,VWS V14.01,2013-07-03 21:36:00,
2013-07-03 16:41:00,86.0,40.3,28.41,WNW,284,2.2,6.3,20,0.00,,---,0.00,VWS V14.01,2013-07-03 21:41:00,
2013-07-03 16:47:00,85.8,40.2,28.41,South,183,4.9,6.3,20,0.00,,---,0.00,VWS V14.01,2013-07-03 21:47:00,
2013-07-03 16:52:00,85.8,40.2,28.41,WSW,250,3.1,6.3,20,0.00,,---,0.00,VWS V14.01,2013-07-03 21:52:00,
2013-07-03 16:57:00,85.6,40.0,28.41,SSW,196,0.0,6.3,20,0.00,,---,0.00,VWS V14.01,2013-07-03 21:57:00,
2013-07-03 17:03:00,85.5,39.9,28.41,SSE,161,2.2,4.5,20,0.00,,---,0.00,VWS V14.01,2013-07-03 22:03:00,
2013-07-03 17:08:00,85.3,39.7,28.41,South,180,0.0,4.5,20,0.00,,---,0.00,VWS V14.01,2013-07-03 22:08:00,
2013-07-03 17:13:00,85.3,39.7,28.41,South,180,4.0,4.9,20,0.00,,---,0.00,VWS V14.01,2013-07-03 22:13:00,
2013-07-03 17:19:00,85.5,39.9,28.41,South,180,6.3,6.3,20,0.00,,---,0.00,VWS V14.01,2013-07-03 22:19:00,
2013-07-03 17:24:00,85.3,39.7,28.41,ESE,113,5.8,6.3,20,0.00,,---,0.00,VWS V14.01,2013-07-03 22:24:00,
2013-07-03 17:29:00,85.1,39.6,28.41,SE,130,2.7,6.3,20,0.00,,---,0.00,VWS V14.01,2013-07-03 22:29:00,
2013-07-03 17:35:00,84.9,39.4,28.41,WSW,252,2.7,6.3,20,0.00,,---,0.00,VWS V14.01,2013-07-03 22:35:00,
2013-07-03 17:41:00,85.1,39.6,28.41,South,189,2.7,6.3,20,0.00,,---,0.00,VWS V14.01,2013-07-03 22:41:00,
2013-07-03 17:46:00,85.1,39.6,28.41,SSE,166,3.1,6.3,20,0.00,,---,0.00,VWS V14.01,2013-07-03 22:46:00,
2013-07-03 17:51:00,85.3,39.7,28.38,SE,126,3.1,6.3,20,0.00,,---,0.00,VWS V14.01,2013-07-03 22:51:00,
2013-07-03 17:57:00,85.3,39.7,28.38,South,175,0.0,6.3,20,0.00,,---,0.00,VWS V14.01,2013-07-03 22:57:00,
2013-07-03 18:02:00,85.3,39.7,28.38,South,170,3.1,3.6,20,0.00,,---,0.00,VWS V14.01,2013-07-03 23:02:00,
2013-07-03 18:07:00,84.9,39.4,28.38,SSE,149,2.7,4.9,20,0.00,,---,0.00,VWS V14.01,2013-07-03 23:07:00,
2013-07-03 18:12:00,84.7,39.3,28.38,ESE,121,3.6,4.9,20,0.00,,---,0.00,VWS V14.01,2013-07-03 23:12:00,
2013-07-03 18:17:00,84.4,39.0,28.38,South,174,3.1,5.4,20,0.00,,---,0.00,VWS V14.01,2013-07-03 23:17:00,
2013-07-03 18:22:00,84.2,38.8,28.38,SSE,162,3.1,5.4,20,0.00,,---,0.00,VWS V14.01,2013-07-03 23:22:00,
2013-07-03 18:27:00,84.0,39.9,28.38,SSE,150,0.0,7.6,21,0.00,,---,0.00,VWS V14.01,2013-07-03 23:27:00,
2013-07-03 18:34:00,83.8,39.8,28.38,SSW,210,0.0,7.6,21,0.00,,---,0.00,VWS V14.01,2013-07-03 23:34:00,
2013-07-03 18:39:00,83.8,39.8,28.38,SE,140,0.0,7.6,21,0.00,,---,0.00,VWS V14.01,2013-07-03 23:39:00,
2013-07-03 18:45:00,83.8,39.8,28.38,SE,140,0.0,7.6,21,0.00,,---,0.00,VWS V14.01,2013-07-03 23:45:00,
2013-07-03 18:50:00,83.8,39.8,28.38,ESE,120,0.0,7.6,21,0.00,,---,0.00,VWS V14.01,2013-07-03 23:50:00,
2013-07-03 18:55:00,83.7,39.6,28.38,SSE,159,3.1,7.6,21,0.00,,---,0.00,VWS V14.01,2013-07-03 23:55:00,
2013-07-03 19:00:00,83.8,39.8,28.38,NW,312,0.0,0.0,21,0.00,,---,0.00,VWS V14.01,2013-07-04 00:00:00,
2013-07-03 19:06:00,83.8,39.8,28.38,WSW,237,0.0,5.4,21,0.00,,---,0.00,VWS V14.01,2013-07-04 00:06:00,
2013-07-03 19:11:00,83.7,39.6,28.38,SW,233,0.0,5.4,21,0.00,,---,0.00,VWS V14.01,2013-07-04 00:11:00,
2013-07-03 19:16:00,83.5,39.5,28.38,SSE,166,0.0,5.4,21,0.00,,---,0.00,VWS V14.01,2013-07-04 00:16:00,
2013-07-03 19:21:00,83.3,39.3,28.38,SSE,167,0.0,5.4,21,0.00,,---,0.00,VWS V14.01,2013-07-04 00:21:00,
2013-07-03 19:26:00,83.1,39.2,28.38,SSE,165,0.0,5.4,21,0.00,,---,0.00,VWS V14.01,2013-07-04 00:26:00,
2013-07-03 19:32:00,82.9,39.0,28.38,SSE,164,0.0,5.4,21,0.00,,---,0.00,VWS V14.01,2013-07-04 00:32:00,
2013-07-03 19:37:00,82.8,38.9,28.38,South,170,2.2,5.4,21,0.00,,---,0.00,VWS V14.01,2013-07-04 00:37:00,
2013-07-03 19:42:00,82.6,38.7,28.38,SE,143,2.2,5.4,21,0.00,,---,0.00,VWS V14.01,2013-07-04 00:42:00,
2013-07-03 19:47:00,82.6,38.7,28.38,SE,143,0.0,5.4,21,0.00,,---,0.00,VWS V14.01,2013-07-04 00:47:00,
2013-07-03 19:53:00,82.4,38.6,28.38,South,171,0.0,5.4,21,0.00,,---,0.00,VWS V14.01,2013-07-04 00:53:00,
2013-07-03 19:58:00,82.2,39.6,28.38,South,183,3.6,5.4,22,0.00,,---,0.00,VWS V14.01,2013-07-04 00:58:00,
2013-07-03 20:04:00,82.0,39.5,28.38,South,170,0.0,3.6,22,0.00,,---,0.00,VWS V14.01,2013-07-04 01:04:00,
2013-07-03 20:09:00,81.7,39.2,28.38,South,170,0.0,3.6,22,0.00,,---,0.00,VWS V14.01,2013-07-04 01:09:00,
2013-07-03 20:14:00,81.5,39.0,28.38,South,170,0.0,3.6,22,0.00,,---,0.00,VWS V14.01,2013-07-04 01:14:00,
2013-07-03 20:20:00,81.3,38.9,28.38,South,176,0.0,3.6,22,0.00,,---,0.00,VWS V14.01,2013-07-04 01:20:00,
2013-07-03 20:26:00,81.0,38.6,28.41,South,176,0.0,3.6,22,0.00,,---,0.00,VWS V14.01,2013-07-04 01:26:00,
2013-07-03 20:32:00,80.4,39.3,28.41,NE,47,0.0,3.6,23,0.00,,---,0.00,VWS V14.01,2013-07-04 01:32:00,
2013-07-03 20:37:00,80.1,39.0,28.41,NE,47,0.0,3.6,23,0.00,,---,0.00,VWS V14.01,2013-07-04 01:37:00,
2013-07-03 20:42:00,79.7,38.7,28.41,NE,52,0.0,3.6,23,0.00,,---,0.00,VWS V14.01,2013-07-04 01:42:00,
2013-07-03 20:48:00,79.3,39.5,28.41,SSE,168,0.0,3.6,24,0.00,,---,0.00,VWS V14.01,2013-07-04 01:48:00,
2013-07-03 20:53:00,79.0,39.2,28.38,SSE,168,0.0,3.6,24,0.00,,---,0.00,VWS V14.01,2013-07-04 01:53:00,
2013-07-03 20:58:00,78.4,39.7,28.38,SSE,168,0.0,3.6,25,0.00,,---,0.00,VWS V14.01,2013-07-04 01:58:00,
2013-07-03 21:03:00,78.1,39.4,28.38,South,171,0.0,0.0,25,0.00,,---,0.00,VWS V14.01,2013-07-04 02:03:00,
2013-07-03 21:08:00,77.7,39.1,28.41,NE,46,0.0,0.0,25,0.00,,---,0.00,VWS V14.01,2013-07-04 02:08:00,
2013-07-03 21:14:00,77.4,39.8,28.41,NE,46,0.0,0.0,26,0.00,,---,0.00,VWS V14.01,2013-07-04 02:14:00,
2013-07-03 21:19:00,77.0,39.5,28.41,NE,48,0.0,0.0,26,0.00,,---,0.00,VWS V14.01,2013-07-04 02:19:00,
2013-07-03 21:24:00,76.8,40.3,28.41,SSE,151,0.0,0.0,27,0.00,,---,0.00,VWS V14.01,2013-07-04 02:24:00,
2013-07-03 21:30:00,76.5,40.0,28.41,SSE,151,0.0,0.0,27,0.00,,---,0.00,VWS V14.01,2013-07-04 02:30:00,
2013-07-03 21:35:00,75.9,40.5,28.41,SSE,153,2.7,3.1,28,0.00,,---,0.00,VWS V14.01,2013-07-04 02:35:00,
2013-07-03 21:41:00,75.4,41.0,28.41,SSE,166,2.2,3.1,29,0.00,,---,0.00,VWS V14.01,2013-07-04 02:41:00,
2013-07-03 21:47:00,74.8,41.4,28.41,SSE,163,0.0,4.0,30,0.00,,---,0.00,VWS V14.01,2013-07-04 02:47:00,
2013-07-03 21:52:00,74.5,41.9,28.41,SSE,163,0.0,4.0,31,0.00,,---,0.00,VWS V14.01,2013-07-04 02:52:00,
2013-07-03 21:57:00,74.1,41.6,28.41,SSE,164,0.0,4.0,31,0.00,,---,0.00,VWS V14.01,2013-07-04 02:57:00,
2013-07-03 22:02:00,73.8,41.3,28.41,SSE,159,2.2,4.0,31,0.00,,---,0.00,VWS V14.01,2013-07-04 03:02:00,
2013-07-03 22:07:00,73.6,41.1,28.41,SSW,206,0.0,4.0,31,0.00,,---,0.00,VWS V14.01,2013-07-04 03:07:00,
2013-07-03 22:13:00,73.4,41.8,28.41,WSW,240,0.0,4.0,32,0.00,,---,0.00,VWS V14.01,2013-07-04 03:13:00,
2013-07-03 22:18:00,73.2,41.6,28.41,SSE,161,2.7,4.0,32,0.00,,---,0.00,VWS V14.01,2013-07-04 03:18:00,
2013-07-03 22:24:00,73.0,41.5,28.41,SSE,162,0.0,4.0,32,0.00,,---,0.00,VWS V14.01,2013-07-04 03:24:00,
2013-07-03 22:29:00,72.7,41.2,28.41,South,190,0.0,4.0,32,0.00,,---,0.00,VWS V14.01,2013-07-04 03:29:00,
2013-07-03 22:35:00,72.3,41.6,28.41,South,190,0.0,4.0,33,0.00,,---,0.00,VWS V14.01,2013-07-04 03:35:00,
2013-07-03 22:40:00,72.0,41.3,28.41,South,186,0.0,4.0,33,0.00,,---,0.00,VWS V14.01,2013-07-04 03:40:00,
2013-07-03 22:45:00,71.6,41.0,28.41,South,184,0.0,4.0,33,0.00,,---,0.00,VWS V14.01,2013-07-04 03:45:00,
2013-07-03 22:50:00,71.4,41.6,28.41,SSE,156,0.0,4.0,34,0.00,,---,0.00,VWS V14.01,2013-07-04 03:50:00,
2013-07-03 22:55:00,71.2,41.5,28.41,SSE,148,0.0,4.0,34,0.00,,---,0.00,VWS V14.01,2013-07-04 03:55:00,
2013-07-03 23:00:00,70.9,41.1,28.41,SSE,153,0.0,0.0,34,0.00,,---,0.00,VWS V14.01,2013-07-04 04:00:00,
2013-07-03 23:01:00,70.9,41.1,28.41,SSE,153,0.0,0.0,34,0.00,,---,0.00,VWS V14.01,2013-07-04 04:01:00,
2013-07-03 23:02:00,70.7,41.0,28.41,SSE,149,0.0,0.0,34,0.00,,---,0.00,VWS V14.01,2013-07-04 04:02:00,
2013-07-03 23:03:00,70.7,41.7,28.41,SSE,148,3.6,3.6,35,0.00,,---,0.00,VWS V14.01,2013-07-04 04:03:00,
2013-07-03 23:05:00,70.7,41.7,28.41,SE,146,0.0,3.6,35,0.00,,---,0.00,VWS V14.01,2013-07-04 04:05:00,
2013-07-03 23:10:00,70.3,41.4,28.41,SE,146,2.7,3.6,35,0.00,,---,0.00,VWS V14.01,2013-07-04 04:10:00,
2013-07-03 23:15:00,70.2,41.3,28.41,South,170,0.0,3.6,35,0.00,,---,0.00,VWS V14.01,2013-07-04 04:15:00,
2013-07-03 23:20:00,70.0,41.8,28.41,SSE,153,0.0,4.0,36,0.00,,---,0.00,VWS V14.01,2013-07-04 04:20:00,
2013-07-03 23:25:00,69.8,41.7,28.41,SE,143,0.0,4.0,36,0.00,,---,0.00,VWS V14.01,2013-07-04 04:25:00,
2013-07-03 23:31:00,69.6,42.2,28.41,SE,143,0.0,4.0,37,0.00,,---,0.00,VWS V14.01,2013-07-04 04:31:00,
2013-07-03 23:36:00,69.4,42.1,28.41,SSE,162,5.4,5.4,37,0.00,,---,0.00,VWS V14.01,2013-07-04 04:36:00,
2013-07-03 23:41:00,69.3,41.9,28.44,SSE,157,0.0,5.4,37,0.00,,---,0.00,VWS V14.01,2013-07-04 04:41:00,
2013-07-03 23:46:00,69.1,41.7,28.44,SSE,158,0.0,5.4,37,0.00,,---,0.00,VWS V14.01,2013-07-04 04:46:00,
2013-07-03 23:51:00,68.9,42.3,28.44,SSE,155,0.0,5.4,38,0.00,,---,0.00,VWS V14.01,2013-07-04 04:51:00,
2013-07-03 23:56:00,68.7,42.1,28.44,SSE,158,0.0,5.4,38,0.00,,---,0.00,VWS V14.01,2013-07-04 04:56:00,